Weather History for Montreal, QC

Change the Weather History Date:

Monday, October 15, 2012

  Actual Average Record
Temperature  
Mean Temperature 56 °F -  
Max Temperature 64 °F 53 °F 64 °F (2000)
Min Temperature 47 °F 39 °F 26 °F (1996)
Degree Days  
Heating Degree Days 10    
Growing Degree Days 6 (Base 50)    
Moisture  
Dew Point 49 °F    
Average Humidity 78    
Maximum Humidity 100    
Minimum Humidity 56    
Precipitation  
Precipitation 0.02 in - - ()
Sea Level Pressure  
Sea Level Pressure 29.58 in    
Wind  
Wind Speed 10 mph ()    
Max Wind Speed 21 mph    
Max Gust Speed 32 mph    
Visibility 12.3 miles    
Events Rain    
Averages and records for this station are not official NWS values.
T = Trace of Precipitation, MM = Missing Value Source: Averaged Metar Reports

Daily Weather History Graph

Daily Weather History Graph

Search for Another Location

Airport:

Trip Planner

Search our weather history database for the weather conditions in past years. The results will help you decide how hot, cold, wet, or windy it might be!

Date:

Astronomy

Oct. 15, 2012 Rise Set
Actual Time 7:11 AM EDT 6:08 PM EDT
Civil Twilight 6:41 AM EDT 6:38 PM EDT
Nautical Twilight 6:07 AM EDT 7:12 PM EDT
Astronomical Twilight 5:33 AM EDT 7:46 PM EDT
Moon 7:21 AM EDT (10/15) 6:02 PM EDT (10/15)
Length of Visible Light 11h 56m
Length of Day
10h 56m
New Moon, 0% of the Moon is Illuminated
Oct 15
New Moon
Oct 21
First Quarter
Oct 29
Full
Nov 6
Last Quarter
Nov 13
New

Hourly Weather History & Observations

Time (EDT) Temp. Dew Point Humidity Pressure Visibility Wind Dir Wind Speed Gust Speed Precip Events Conditions
12:00 AM 48.2 °F 48.2 °F 100% 29.70 in 4.0 mi NNE 9.2 mph - N/A Rain Light Rain
12:51 AM 48.2 °F - N/A% - 6.0 mi NNE 9.2 mph - N/A Rain Light Rain
1:00 AM 48.2 °F 46.4 °F 93% 29.68 in 6.0 mi NE 8.1 mph - N/A Rain Light Rain
2:00 AM 47 °F 47 °F 99% 29.67 in 6 mi North 5.8 mph - - Rain Light Rain
2:00 AM 48.2 °F 46.4 °F 93% 29.67 in 6.0 mi North 5.8 mph - N/A Rain Light Rain
3:00 AM 48.2 °F 46.4 °F 93% 29.63 in 6.0 mi NNE 6.9 mph - N/A Rain Light Rain
4:00 AM 48.2 °F 46.4 °F 93% 29.60 in 6.0 mi NE 5.8 mph - N/A Rain Light Rain
5:00 AM 53.6 °F 51.8 °F 94% 29.56 in 8.0 mi ENE 2.3 mph - N/A   Mostly Cloudy
6:00 AM 57.2 °F 53.6 °F 88% 29.55 in 10.0 mi South 6.9 mph - N/A   Mostly Cloudy
7:00 AM 57.2 °F 53.6 °F 88% 29.53 in 15.0 mi SSE 11.5 mph - N/A   Overcast
8:00 AM 57 °F 52 °F 78% 29.52 in 15 mi SSE 11.5 mph - -   Partly Cloudy
8:00 AM 57.2 °F 51.8 °F 82% 29.52 in 15.0 mi SSE 11.5 mph - N/A   Mostly Cloudy
9:00 AM 57.2 °F 51.8 °F 82% 29.52 in 15.0 mi SSE 12.7 mph - N/A   Overcast
10:00 AM 60.8 °F 53.6 °F 77% 29.52 in 15.0 mi SSE 15.0 mph - N/A   Mostly Cloudy
11:00 AM 62.6 °F 55.4 °F 77% 29.51 in 15.0 mi SSE 12.7 mph - N/A   Overcast
12:00 PM 62.6 °F 53.6 °F 72% 29.55 in 15.0 mi SW 10.4 mph - N/A Rain Light Rain Showers
1:00 PM 60.8 °F 51.8 °F 72% 29.55 in 15.0 mi WSW 13.8 mph - N/A   Mostly Cloudy
2:00 PM 61 °F 51 °F 62% 29.55 in 15 mi SW 18.4 mph - -   Partly Cloudy
2:00 PM 60.8 °F 51.8 °F 72% 29.55 in 15.0 mi SSW 17.3 mph 25.3 mph N/A   Mostly Cloudy
3:00 PM 64.4 °F 48.2 °F 56% 29.56 in 30.0 mi SW 18.4 mph 24.2 mph N/A   Mostly Cloudy
4:00 PM 60.8 °F 48.2 °F 63% 29.57 in 15.0 mi SW 17.3 mph - N/A   Mostly Cloudy
5:00 PM 60.8 °F 48.2 °F 63% 29.57 in 15.0 mi SW 18.4 mph - N/A   Mostly Cloudy
6:00 PM 59.0 °F 46.4 °F 63% 29.57 in 15.0 mi SW 20.7 mph 32.2 mph N/A   Mostly Cloudy
7:00 PM 57.2 °F 48.2 °F 72% 29.57 in 15.0 mi SW 19.6 mph - N/A   Mostly Cloudy
8:00 PM 55 °F 47 °F 66% 29.58 in 15 mi SW 19.6 mph - -   Scattered Clouds
8:00 PM 55.4 °F 46.4 °F 72% 29.58 in 15.0 mi SW 18.4 mph 25.3 mph N/A   Mostly Cloudy
9:00 PM 55.4 °F 46.4 °F 72% 29.59 in 15.0 mi SW 18.4 mph 24.2 mph N/A   Scattered Clouds
10:00 PM 53.6 °F 44.6 °F 72% 29.58 in 15.0 mi SW 16.1 mph - N/A   Scattered Clouds
11:00 PM 53.6 °F 41.0 °F 62% 29.58 in 15.0 mi WSW 19.6 mph - N/A   Mostly Cloudy